Regional Weather Roundup
Issued by NWS

Home | Current Version | Previous Version | Graphics & Text | Print | Product List | Glossary On
Versions: 1 2 3 4 5 6 7 8 9 10 11 12 13 14 15 16 17 18 19 20 21 22 23 24 25 26 27 28 29 30 31 32 33 34 35 36 37 38 39 40 41 42 43 44 45 46 47 48 49 50
000
ASUS43 KMKX 111000
RWRWI

WISCONSIN REGIONAL WEATHER ROUNDUP
NATIONAL WEATHER SERVICE MILWAUKEE/SULLIVAN WI
500 AM CDT FRI JUL 11 2014

NOTE: "FAIR" INDICATES FEW OR NO CLOUDS BELOW 12,000 FEET WITH NO
SIGNIFICANT WEATHER AND/OR OBSTRUCTIONS TO VISIBILITY.

WIZ001-002-006>008-014>016-023>028-111100-
NORTHWEST WISCONSIN

CITY           SKY/WX    TMP DP  RH WIND       PRES   REMARKS
SUPERIOR ARPT  RAIN      53  52  96 CALM      29.98S
ASHLAND        LGT RAIN  66  63  90 S6        30.01S
HAYWARD        CLOUDY    69  59  70 S10       30.03R
SIREN          LGT RAIN  65  62  88 SE9       29.99F
RICE LAKE      CLOUDY    67  58  72 SE6       30.03F
LADYSMITH      MOCLDY    67  60  79 S7        30.07S
EAU CLAIRE     NOT AVBL
MENOMONIE      DRIZZLE   67  59  75 S9        30.04R
NEW RICHMOND   CLOUDY    69  58  68 S13       30.00S
OSCEOLA        CLOUDY    69  60  72 S10       30.00F
$$

WIZ003>005-009-010-017-018-111100-
NORTH CENTRAL WISCONSIN

CITY           SKY/WX    TMP DP  RH WIND       PRES   REMARKS
WOODRUFF       MOCLDY    64  61  90 S6        30.09S
RHINELANDER    PTCLDY    62  59  90 S5        30.11S
EAGLE RIVER    MOCLDY    60  59  97 CALM      30.11R
LAND O LAKES   MOCLDY    60  58  95 CALM      30.11R
PHILLIPS       CLOUDY    64  60  87 S8        30.07F
TOMAHAWK       MOCLDY    60  58  94 CALM      30.12R
MEDFORD        PTCLDY    61  59  93 S7        30.11R
MERRILL        MOCLDY    64  61  92 S3        30.12R
$$

WIZ029-030-035-036-043>047-111100-
CENTRAL WISCONSIN

CITY           SKY/WX    TMP DP  RH WIND       PRES   REMARKS
WAUSAU         CLEAR     65  61  87 S7        30.11R
MOSINEE        CLEAR     61  61 100 S8        30.13R
MARSHFIELD     CLEAR     61  59  93 S6        30.12R
STEVENS POINT  CLEAR     62  58  87 S7        30.13S
WAUPACA        CLEAR     62  60  92 CALM      30.14R
WAUTOMA        NOT AVBL
WISC RAPIDS    CLEAR     64  59  83 S6        30.13S
CAMP DOUGLAS   NOT AVBL
$$

WIZ011>013-019>022-031-037>040-048>050-111100-
NORTHEAST WISCONSIN

CITY           SKY/WX    TMP DP  RH WIND       PRES   REMARKS
ANTIGO         PTCLDY    57  56  97 S3        30.14R
STURGEON BAY   MOCLDY    63  45  51 S10       30.15R
GREEN BAY      CLOUDY    61  53  75 S7        30.14S
MANITOWOC      NOT AVBL
APPLETON       PTCLDY    61  52  72 S6        30.15R
CLINTONVILLE   PTCLDY    59  55  88 CALM      30.13S
OSHKOSH        MOCLDY    63  54  72 S12       30.14S
$$

WIZ032>034-041-042-053>061-111100-
SOUTHWEST WISCONSIN

CITY           SKY/WX    TMP DP  RH WIND       PRES   REMARKS
LA CROSSE      MOCLDY    70  59  68 S10       30.08S
SPARTA         PTCLDY    67  57  70 S8        30.10F
VIROQUA        FAIR      64  58  80 S7        30.13S
BOSCOBEL       MOCLDY    64  59  83 CALM      30.13R
PRAIRIE DU CHI CLOUDY    69  56  62 SE5       30.12S
PLATTEVILLE    FAIR      63  59  89 SE7       30.16S
$$

WIZ056-057-062-063-064-067-068-111100-
SOUTH CENTRAL WISCONSIN

CITY           SKY/WX    TMP DP  RH WIND       PRES   REMARKS
BARABOO/DELLS  PTCLDY    64  57  76 S9        30.14S
LONE ROCK      NOT AVBL
WATERTOWN      PTCLDY    59  53  80 CALM      30.16S
MADISON        CLEAR     63  56  78 VRB3      30.16S
MIDDLETON      FAIR      64  56  75 SW3       30.16S
MONROE         CLEAR     59  55  88 S8        30.16S
JANESVILLE     CLEAR     59  52  77 CALM      30.16S
$$

WIZ051-052-058>065-066-070>072-111100-
SOUTHEAST WISCONSIN

CITY           SKY/WX    TMP DP  RH WIND       PRES   REMARKS
MILWAUKEE      PTCLDY    60  51  72 SE5       30.18S
WAUKESHA       PTCLDY    59  48  67 S6        30.19R
MILWAUKEE/TIMM PTCLDY    61  46  59 S6        30.18S
RACINE         PTCLDY    62  56  80 S5        30.20S
BURLINGTON     PTCLDY    53  52  98 CALM      30.18S
KENOSHA        PTCLDY    55  52  89 S3        30.18F
FOND DU LAC    PTCLDY    58  52  80 S5        30.16R
SHEBOYGAN      PTCLDY    57  51  80 S3        30.16S
WEST BEND      MOCLDY    59  46  63 CALM      30.17S
JUNEAU         MOCLDY    61  38  43 S7        30.18S
$$

LSZ147-162-111100-
LAKE SUPERIOR

STATION/POSITION TIME  TEMP    WIND        PRES    WAVE
                       AIR SEA DIR/SP/G            HT/PER
                 (UTC) (F)     (DEG/KT/KT) (MB)    (FT/S)
W MID LAKE BUOY  0850   48 38   80/  4/  6 1015.6F   0
PORT WING        0900   57     160/  2/  2 1014.9F
SAXON HARBOR     0900          190/  6/ 12 1015.9F
$$

LMZ867-665-643>646-111100-
LAKE MICHIGAN

STATION/POSITION TIME  TEMP    WIND        PRES    WAVE
                       AIR SEA DIR/SP/G            HT/PER
                 (UTC) (F)     (DEG/KT/KT) (MB)    (FT/S)
N MID LAKE BUOY  0850   58 55  200/ 12/ 14 1020.5F   1/ 3
NORTHPORT PIER   0900   62     150/  6/  9 1020.3F
ALGOMA LAKESHORE 0820          230/  6/  7   N/A
KEWAUNEE LAKESHO 0900   52     170/  8/  9 1021.5S
SHEBOYGAN LAKESH 0900   62     200/  8/  8 1021.7S
PORT WASHINGTON  0900   60      80/  1/  2 1022.4
MILWAUKEE LAKESH 0900   62     170/  4/  4   N/A
S MID LAKE BUOY  0850   60 58  230/  2/  4 1022.5S   0
KENOSHA   LAKESH 0900   63     200/  5/  7   N/A
$$

TC  - TEMPERATURE IN CELSIUS
VSB - VISIBILITY IN STATUTE MILES
WCI - WIND CHILL INDEX
HX  - HEAT INDEX



USA.gov is the U.S. government's official web portal to all federal, state and local government web resources and services.